Flag for Angola Weather past 2 weeks in Luanda, Angola

Now
79 °F

Passing clouds.


Feels Like: 82 °F
Forecast: 77 / 87 °F
Wind: 9 mph from Southeast

Location: Luanda Airport

Current Time: Apr 25, 2015 at 10:52:31 PM

Latest Report: Apr 25, 2015 at 10:00 PM


Visibility: N/A

Pressure: 29.92 "Hg

Humidity: 84%

Dew point: 73 °F

Location of LuandaLocation

Historic Weather in Luanda — Graph

°F

Luanda temperature yesterday

Maximum temperature yesterday: 86 °F (at 12:00 PM)
Minimum temperature yesterday: 75 °F (at 2:00 AM)
Average temperature yesterday: 80 °F

Past Weeks' High & Low Weather Summary

 TemperatureHumidityPressure
High90 °F (Apr 12, 3:00 PM)94% (Apr 15, 3:00 AM)30.04 "Hg (Apr 15, 3:00 AM)
Low75 °F (Apr 20, 1:00 AM)52% (Apr 20, 1:00 PM)29.74 "Hg (Apr 15, 4:00 PM)
Average81 °F79%29.88 "Hg
* Reported Apr 10 10:00 PM — Apr 25 10:00 PM, Luanda, Weather by CustomWeather, © 2015

Note: Actual official high and low records may vary slightly from our data, if they occured in-between our weather recording intervals... More about our weather records

Advertising

Luanda weather history for previous 24 hours

 ConditionsComfort  
Time TempWeatherWind HumidityBarometerVisibility
10:00 PM
Sat, Apr 25
79 °FPassing clouds.9 mph84%29.92 "HgN/A
9:00 PM79 °FPassing clouds.8 mph84%29.92 "HgN/A
8:00 PM81 °FPassing clouds.9 mph79%29.92 "HgN/A
6:00 PM81 °FPassing clouds.10 mph74%29.89 "HgN/A
5:00 PM84 °FPartly sunny.10 mph66%29.89 "HgN/A
4:00 PM82 °FPartly sunny.9 mph70%29.89 "HgN/A
3:00 PM82 °FPartly sunny.10 mph74%29.89 "HgN/A
2:00 PM79 °FLight rain. Partly sunny.7 mph84%29.95 "Hg6 mi
1:00 PM81 °FPartly sunny.3 mph79%29.98 "HgN/A
12:00 PM79 °FBroken clouds.No wind84%30.01 "HgN/A
11:00 AM79 °FBroken clouds.2 mph84%30.04 "HgN/A
10:00 AM79 °FPartly sunny.3 mph84%30.04 "HgN/A
9:00 AM77 °FMostly cloudy.No wind89%30.01 "Hg4 mi
8:00 AM75 °FMostly cloudy.No wind89%29.98 "Hg6 mi
7:00 AM75 °FPartly sunny.2 mph89%29.98 "HgN/A
6:00 AM75 °FLight rain. Partly cloudy.2 mph89%29.95 "Hg5 mi
5:00 AM77 °FPassing clouds.2 mph83%29.95 "HgN/A
4:00 AM75 °FThunderstorms. Passing clouds.5 mph89%29.92 "HgN/A
3:00 AM77 °FThunderstorms. Passing clouds.7 mph83%29.92 "HgN/A
2:00 AM77 °FThunderstorms. Passing clouds.9 mph89%29.92 "HgN/A
1:00 AM79 °FPassing clouds.9 mph84%29.95 "HgN/A
12:00 AM79 °FPassing clouds.6 mph84%29.95 "HgN/A
11:00 PM
Fri, Apr 24
79 °FPassing clouds.2 mph89%29.95 "HgN/A
10:00 PM81 °FPassing clouds.2 mph84%29.95 "HgN/A
Weather by CustomWeather, © 2015

See weather overviewHow to use our weather pages